Location: *
(51.2167°N, 10.0667°E)
Time: 21:15:08
(UTC+00:00)

NOSS 0 Rocket - Pass Details

Date: 12 December 2019
Orbit: 934 x 956 km, 70.0° (Epoch: 21 January)

Event Time Altitude Azimuth Distance (km) Brightness Sun altitude
Rises 17:00:28 0° 219° (SW) 3,607 8.0 -15.9°
Reaches altitude 10° 17:03:00 10° 222° (SW) 2,668 7.2 -16.2°
Maximum altitude 17:09:11 67° 306° (NW) 1,028 4.2 -17.2°
Enters shadow 17:14:31 15° 27° (NNE) 2,368 5.6 -18.0°
